START_TIME,STEP,MOV.,AL01,t_acc.,AL02,t_acc.,E37,t_acc.,H21,t_acc.
1979-07-14 12:00:58.580 ,0,0,0.,24.0,0.,24.0,6.,24.0,0.,24.0
1979-07-14 12:01:22.580 ,0,0,0.,24.0,0.,24.0,5.,24.0,0.,24.0
1979-07-14 12:01:46.580 ,2,1,1.,24.0,0.,24.0,4.,24.0,0.,24.0
1979-07-14 12:02:10.580 ,2,0,1.,24.0,1.,24.0,3.,24.0,0.,24.0
1979-07-14 12:02:34.580 ,3,1,0.,24.0,0.,24.0,1.,24.0,0.,24.0
1979-07-14 12:02:58.580 ,3,0,0.,24.0,0.,24.0,1.,24.0,0.,24.0
1979-07-14 12:04:10.580 ,0,0,0.,24.0,0.,24.0,0.,24.0,0.,24.0
1979-07-14 12:04:34.580 ,0,0,0.,24.0,1.,24.0,4.,24.0,0.,24.0
1979-07-14 12:04:58.580 ,6,1,0.,24.0,1.,24.0,2.,24.0,0.,24.0
1979-07-14 12:05:22.580 ,6,0,2.,24.0,0.,24.0,9.,24.0,0.,24.0
1979-07-14 12:05:46.580 ,7,1,7.,24.0,0.,24.0,1.,24.0,0.,24.0
1979-07-14 12:06:10.580 ,7,0,35.,24.0,0.,24.0,0.,24.0,0.,24.0
1979-07-14 12:06:34.580 ,7,1,41.,24.0,0.,24.0,4.,24.0,0.,24.0
1979-07-14 12:06:58.580 ,7,0,33.,24.0,0.,24.0,2.,24.0,0.,24.0
1979-07-14 12:07:22.580 ,0,0,28.,24.0,0.,24.0,7.,24.0,0.,24.0
1979-07-14 12:07:46.580 ,0,0,,0,,0,,0,,0
1979-07-14 12:08:10.580 ,0,0,0.,24.0,0.,24.0,3.,24.0,0.,24.0
1979-07-14 12:08:34.580 ,0,0,0.,24.0,0.,24.0,10.,24.0,0.,24.0
1979-07-14 12:08:58.580 ,4,1,3.,24.0,0.,24.0,3.,24.0,0.,24.0
1979-07-14 12:09:22.580 ,4,0,3.,24.0,1.,24.0,7.,24.0,0.,24.0
1979-07-14 12:09:46.580 ,3,1,2.,24.0,0.,24.0,7.,24.0,0.,24.0
1979-07-14 12:10:10.580 ,3,0,2.,24.0,1.,24.0,4.,24.0,0.,24.0
1979-07-14 12:10:34.580 ,2,1,0.,24.0,1.,24.0,1.,24.0,0.,24.0
1979-07-14 12:10:58.580 ,2,0,0.,24.0,0.,24.0,2.,24.0,0.,24.0
1979-07-14 12:11:22.580 ,1,1,1.,24.0,0.,24.0,8.,24.0,0.,24.0
1979-07-14 12:11:46.580 ,1,0,1.,24.0,0.,24.0,4.,24.0,0.,24.0
1979-07-14 12:12:10.580 ,0,1,1.,24.0,0.,24.0,3.,24.0,0.,24.0
1979-07-14 12:12:34.580 ,0,0,0.,24.0,0.,24.0,1.,24.0,0.,24.0
1979-07-14 12:12:58.580 ,0,1,0.,24.0,1.,24.0,5.,24.0,0.,24.0
1979-07-14 12:13:22.580 ,0,0,1.,24.0,0.,24.0,9.,24.0,0.,24.0
1979-07-14 12:13:46.580 ,1,1,0.,24.0,0.,24.0,5.,24.0,0.,24.0
1979-07-14 12:14:10.580 ,1,0,0.,24.0,1.,24.0,3.,24.0,0.,24.0
1979-07-14 12:14:34.580 ,2,1,0.,24.0,0.,24.0,4.,24.0,0.,24.0
1979-07-14 12:14:58.580 ,2,0,0.,24.0,0.,24.0,5.,24.0,0.,24.0
1979-07-14 12:15:22.580 ,3,1,0.,24.0,0.,24.0,3.,24.0,0.,24.0
1979-07-14 12:15:46.580 ,3,0,2.,24.0,0.,24.0,4.,24.0,0.,24.0
1979-07-14 12:16:10.580 ,4,1,2.,24.0,0.,24.0,8.,24.0,0.,24.0
1979-07-14 12:16:34.580 ,4,0,1.,24.0,0.,24.0,2.,24.0,0.,24.0
1979-07-14 12:16:58.580 ,5,1,1.,24.0,0.,24.0,4.,24.0,0.,24.0
1979-07-14 12:17:22.580 ,5,0,1.,24.0,0.,24.0,3.,24.0,0.,24.0
1979-07-14 12:17:46.580 ,6,1,1.,24.0,1.,24.0,8.,24.0,0.,24.0
1979-07-14 12:18:10.580 ,6,0,1.,24.0,0.,24.0,5.,24.0,0.,24.0
1979-07-14 12:18:34.580 ,7,0,9.,24.0,1.,24.0,1.,24.0,0.,24.0
1979-07-14 12:18:58.580 ,7,0,30.,24.0,0.,24.0,0.,24.0,0.,24.0
1979-07-14 12:19:22.580 ,5,1,15.,24.0,0.,24.0,6.,24.0,0.,24.0
1979-07-14 12:19:46.580 ,1,1,0.,24.0,0.,24.0,7.,24.0,0.,24.0
1979-07-14 12:20:10.580 ,2,1,0.,24.0,1.,24.0,5.,24.0,0.,24.0
1979-07-14 12:20:34.580 ,6,1,1.,24.0,0.,24.0,4.,24.0,0.,24.0
1979-07-14 12:20:58.580 ,5,1,19.,24.0,1.,24.0,3.,24.0,0.,24.0
1979-07-14 12:21:22.580 ,1,1,0.,24.0,0.,24.0,4.,24.0,0.,24.0
1979-07-14 12:21:46.580 ,2,1,0.,24.0,0.,24.0,1.,24.0,0.,24.0
1979-07-14 12:22:10.580 ,6,1,0.,24.0,0.,24.0,5.,24.0,0.,24.0
1979-07-14 12:22:34.580 ,5,1,18.,24.0,0.,24.0,6.,24.0,0.,24.0
1979-07-14 12:22:58.580 ,1,1,0.,24.0,0.,24.0,4.,24.0,0.,24.0
1979-07-14 12:23:22.580 ,2,1,1.,24.0,0.,24.0,7.,24.0,0.,24.0
1979-07-14 12:23:46.580 ,6,1,2.,24.0,0.,24.0,3.,24.0,0.,24.0
1979-07-14 12:24:10.580 ,5,1,16.,24.0,1.,24.0,3.,24.0,0.,24.0
1979-07-14 12:24:34.580 ,1,1,0.,24.0,0.,24.0,6.,24.0,0.,24.0
1979-07-14 12:24:58.580 ,2,1,1.,24.0,0.,24.0,4.,24.0,0.,24.0
1979-07-14 12:25:22.580 ,6,1,1.,24.0,0.,24.0,4.,24.0,0.,24.0
1979-07-14 12:25:46.580 ,5,1,12.,24.0,0.,24.0,2.,24.0,0.,24.0
1979-07-14 12:26:10.580 ,1,1,1.,24.0,1.,24.0,2.,24.0,0.,24.0
1979-07-14 12:26:34.580 ,2,1,0.,24.0,0.,24.0,3.,24.0,0.,24.0
1979-07-14 12:26:58.580 ,6,1,0.,24.0,0.,24.0,4.,24.0,0.,24.0
1979-07-14 12:27:22.580 ,5,1,21.,24.0,0.,24.0,2.,24.0,0.,24.0
1979-07-14 12:27:46.580 ,1,1,1.,24.0,2.,24.0,3.,24.0,0.,24.0
1979-07-14 12:28:10.580 ,2,1,0.,24.0,0.,24.0,4.,24.0,0.,24.0
1979-07-14 12:28:34.580 ,6,1,1.,24.0,0.,24.0,1.,24.0,0.,24.0
1979-07-14 12:28:58.580 ,5,1,12.,24.0,1.,24.0,3.,24.0,0.,24.0
1979-07-14 12:29:22.580 ,1,1,1.,24.0,0.,24.0,0.,24.0,0.,24.0
1979-07-14 12:29:46.580 ,0,0,1.,24.0,0.,24.0,4.,24.0,0.,24.0
1979-07-14 12:30:10.580 ,0,0,0.,24.0,0.,24.0,2.,24.0,0.,24.0
1979-07-14 12:30:34.580 ,5,1,17.,24.0,0.,24.0,5.,24.0,0.,24.0
1979-07-14 12:30:58.580 ,5,0,0.,24.0,0.,24.0,2.,24.0,0.,24.0
1979-07-14 12:31:22.580 ,4,1,0.,24.0,0.,24.0,4.,24.0,0.,24.0
1979-07-14 12:31:46.580 ,4,0,0.,24.0,1.,24.0,4.,24.0,0.,24.0
1979-07-14 12:32:10.580 ,3,1,1.,24.0,0.,24.0,6.,24.0,0.,24.0
1979-07-14 12:32:34.580 ,3,0,0.,24.0,0.,24.0,1.,24.0,0.,24.0
1979-07-14 12:32:58.580 ,2,1,1.,24.0,0.,24.0,5.,24.0,0.,24.0
1979-07-14 12:33:22.580 ,2,0,0.,24.0,0.,24.0,2.,24.0,0.,24.0
1979-07-14 12:33:46.580 ,1,1,0.,24.0,1.,24.0,4.,24.0,0.,24.0
1979-07-14 12:34:10.570 ,1,0,0.,24.0,1.,24.0,6.,24.0,0.,24.0
1979-07-14 12:34:34.570 ,0,1,0.,24.0,0.,24.0,4.,24.0,0.,24.0
1979-07-14 12:34:58.570 ,0,0,0.,24.0,0.,24.0,2.,24.0,0.,24.0
1979-07-14 12:35:22.570 ,0,1,0.,24.0,1.,24.0,2.,24.0,0.,24.0
1979-07-14 12:35:46.570 ,0,0,1.,24.0,0.,24.0,5.,24.0,0.,24.0
1979-07-14 12:36:10.570 ,1,1,2.,24.0,0.,24.0,2.,24.0,0.,24.0
1979-07-14 12:36:34.570 ,1,0,0.,24.0,0.,24.0,8.,24.0,0.,24.0
1979-07-14 12:36:58.570 ,2,1,0.,24.0,0.,24.0,4.,24.0,0.,24.0
1979-07-14 12:37:22.570 ,2,0,2.,24.0,0.,24.0,4.,24.0,0.,24.0
1979-07-14 12:37:46.570 ,3,1,0.,24.0,0.,24.0,7.,24.0,0.,24.0
1979-07-14 12:38:10.570 ,3,0,2.,24.0,0.,24.0,3.,24.0,0.,24.0
1979-07-14 12:38:34.570 ,4,1,0.,24.0,0.,24.0,4.,24.0,0.,24.0
1979-07-14 12:38:58.570 ,4,0,0.,24.0,0.,24.0,8.,24.0,0.,24.0
1979-07-14 12:39:22.570 ,5,1,0.,24.0,0.,24.0,6.,24.0,0.,24.0
1979-07-14 12:39:46.570 ,5,0,1.,24.0,0.,24.0,7.,24.0,0.,24.0
1979-07-14 12:40:10.570 ,6,1,1.,24.0,2.,24.0,7.,24.0,0.,24.0
1979-07-14 12:40:34.570 ,6,0,1.,24.0,0.,24.0,4.,24.0,0.,24.0
1979-07-14 12:40:58.570 ,7,1,4.,24.0,0.,24.0,6.,24.0,0.,24.0
1979-07-14 12:41:22.570 ,0,0,,0,,0,,0,,0
1979-07-14 12:42:47.780 ,0,0,,0,,0,,0,,0
1979-07-14 12:42:58.570 ,0,0,1.,24.0,0.,24.0,8.,24.0,0.,24.0
1979-07-14 12:43:22.570 ,5,1,1.,24.0,0.,24.0,5.,24.0,0.,24.0
1979-07-14 12:43:46.570 ,5,0,1.,24.0,0.,24.0,9.,24.0,0.,24.0
1979-07-14 12:44:10.570 ,4,1,1.,24.0,1.,24.0,1.,24.0,0.,24.0
1979-07-14 12:44:34.570 ,4,0,2.,24.0,1.,24.0,11.,24.0,0.,24.0
1979-07-14 12:44:58.570 ,3,1,0.,24.0,1.,24.0,4.,24.0,0.,24.0
1979-07-14 12:45:22.570 ,3,0,0.,24.0,0.,24.0,6.,24.0,0.,24.0
1979-07-14 12:45:46.570 ,2,1,1.,24.0,1.,24.0,1.,24.0,0.,24.0
1979-07-14 12:46:10.570 ,2,0,0.,24.0,1.,24.0,7.,24.0,0.,24.0
1979-07-14 12:46:34.570 ,1,1,1.,24.0,0.,24.0,9.,24.0,0.,24.0
1979-07-14 12:46:58.570 ,1,0,1.,24.0,0.,24.0,3.,24.0,0.,24.0
1979-07-14 12:47:22.570 ,0,1,0.,24.0,1.,24.0,7.,24.0,0.,24.0
1979-07-14 12:47:46.570 ,0,0,0.,24.0,2.,24.0,6.,24.0,0.,24.0
1979-07-14 12:48:10.570 ,0,1,0.,24.0,0.,24.0,8.,24.0,0.,24.0
1979-07-14 12:48:34.570 ,0,0,0.,24.0,0.,24.0,11.,24.0,0.,24.0
1979-07-14 12:48:58.570 ,1,1,0.,24.0,0.,24.0,4.,24.0,0.,24.0
1979-07-14 12:49:22.570 ,1,0,0.,24.0,1.,24.0,9.,24.0,0.,24.0
1979-07-14 12:49:46.570 ,2,1,1.,24.0,0.,24.0,13.,24.0,0.,24.0
1979-07-14 12:50:10.570 ,2,0,2.,24.0,0.,24.0,3.,24.0,0.,24.0
1979-07-14 12:50:34.570 ,3,1,3.,24.0,1.,24.0,6.,24.0,0.,24.0
1979-07-14 12:50:58.570 ,3,0,4.,24.0,0.,24.0,2.,24.0,0.,24.0
1979-07-14 12:51:22.570 ,4,1,2.,24.0,1.,24.0,3.,24.0,0.,24.0
1979-07-14 12:51:46.570 ,4,0,2.,24.0,0.,24.0,4.,24.0,0.,24.0
1979-07-14 12:52:10.570 ,5,1,6.,24.0,1.,24.0,10.,24.0,0.,24.0
1979-07-14 12:52:34.570 ,5,0,1.,24.0,2.,24.0,7.,24.0,0.,24.0
1979-07-14 12:52:58.570 ,6,1,3.,24.0,0.,24.0,4.,24.0,0.,24.0
1979-07-14 12:53:22.570 ,6,0,2.,24.0,0.,24.0,7.,24.0,0.,24.0
1979-07-14 12:53:46.570 ,7,1,6.,24.0,1.,24.0,9.,24.0,0.,24.0
1979-07-14 12:54:10.570 ,7,0,30.,24.0,0.,24.0,4.,24.0,0.,24.0
1979-07-14 12:54:34.570 ,7,1,32.,24.0,0.,24.0,5.,24.0,0.,24.0
1979-07-14 12:54:58.570 ,7,0,23.,24.0,0.,24.0,7.,24.0,0.,24.0
1979-07-14 12:55:22.570 ,0,0,23.,24.0,0.,24.0,7.,24.0,0.,24.0
1979-07-14 12:55:46.570 ,0,0,2.,24.0,1.,24.0,8.,24.0,0.,24.0
1979-07-14 12:56:10.570 ,5,1,2.,24.0,2.,24.0,5.,24.0,0.,24.0
1979-07-14 12:56:34.570 ,5,0,2.,24.0,0.,24.0,13.,24.0,0.,24.0
1979-07-14 12:56:58.570 ,4,1,1.,24.0,0.,24.0,9.,24.0,0.,24.0
1979-07-14 12:57:22.570 ,4,0,1.,24.0,0.,24.0,11.,24.0,0.,24.0
1979-07-14 12:57:46.570 ,3,1,2.,24.0,0.,24.0,2.,24.0,0.,24.0
1979-07-14 12:58:10.570 ,3,0,3.,24.0,0.,24.0,3.,24.0,0.,24.0
1979-07-14 12:58:34.570 ,2,1,4.,24.0,1.,24.0,4.,24.0,0.,24.0
1979-07-14 12:58:58.570 ,2,0,2.,24.0,0.,24.0,9.,24.0,0.,24.0
1979-07-14 12:59:22.570 ,1,1,2.,24.0,1.,24.0,7.,24.0,0.,24.0
1979-07-14 12:59:46.570 ,1,0,0.,24.0,0.,24.0,6.,24.0,0.,24.0
1979-07-14 13:00:10.570 ,0,1,0.,24.0,0.,24.0,3.,24.0,0.,24.0
1979-07-14 13:00:34.570 ,0,0,0.,24.0,0.,24.0,6.,24.0,0.,24.0
1979-07-14 13:00:58.570 ,0,1,2.,24.0,0.,24.0,7.,24.0,0.,24.0
1979-07-14 13:01:22.570 ,0,0,1.,24.0,0.,24.0,9.,24.0,0.,24.0
1979-07-14 13:01:46.570 ,1,1,0.,24.0,0.,24.0,2.,24.0,0.,24.0
1979-07-14 13:02:10.570 ,1,0,1.,24.0,0.,24.0,10.,24.0,0.,24.0
1979-07-14 13:02:34.570 ,2,1,1.,24.0,2.,24.0,14.,24.0,0.,24.0
1979-07-14 13:02:58.570 ,2,0,2.,24.0,0.,24.0,3.,24.0,0.,24.0
1979-07-14 13:03:22.570 ,3,1,1.,24.0,0.,24.0,9.,24.0,0.,24.0
1979-07-14 13:03:46.570 ,3,0,4.,24.0,1.,24.0,3.,24.0,0.,24.0
1979-07-14 13:04:10.570 ,4,1,3.,24.0,0.,24.0,5.,24.0,0.,24.0
1979-07-14 13:04:34.570 ,4,0,1.,24.0,3.,24.0,11.,24.0,0.,24.0
1979-07-14 13:04:58.570 ,5,1,3.,24.0,0.,24.0,13.,24.0,0.,24.0
1979-07-14 13:05:22.570 ,5,0,3.,24.0,0.,24.0,6.,24.0,0.,24.0
1979-07-14 13:05:46.570 ,6,1,3.,24.0,0.,24.0,6.,24.0,0.,24.0
1979-07-14 13:06:10.570 ,6,0,1.,24.0,1.,24.0,13.,24.0,0.,24.0
1979-07-14 13:06:34.570 ,7,0,9.,24.0,2.,24.0,4.,24.0,0.,24.0
1979-07-14 13:06:58.570 ,7,0,18.,24.0,0.,24.0,6.,24.0,0.,24.0
1979-07-14 13:07:22.570 ,5,1,12.,24.0,1.,24.0,10.,24.0,0.,24.0
1979-07-14 13:07:46.570 ,1,1,1.,24.0,2.,24.0,8.,24.0,0.,24.0
1979-07-14 13:08:10.570 ,2,1,1.,24.0,1.,24.0,4.,24.0,0.,24.0
1979-07-14 13:08:34.570 ,6,1,6.,24.0,1.,24.0,4.,24.0,0.,24.0
1979-07-14 13:08:58.570 ,5,1,27.,24.0,0.,24.0,12.,24.0,0.,24.0
1979-07-14 13:09:22.570 ,1,1,0.,24.0,1.,24.0,11.,24.0,0.,24.0
1979-07-14 13:09:46.570 ,2,1,1.,24.0,0.,24.0,4.,24.0,0.,24.0
1979-07-14 13:10:10.570 ,6,1,3.,24.0,1.,24.0,8.,24.0,0.,24.0
1979-07-14 13:10:34.570 ,5,1,17.,24.0,0.,24.0,6.,24.0,0.,24.0
1979-07-14 13:10:58.570 ,1,1,0.,24.0,1.,24.0,3.,24.0,0.,24.0
1979-07-14 13:11:22.570 ,2,1,0.,24.0,1.,24.0,4.,24.0,0.,24.0
1979-07-14 13:11:46.570 ,6,1,1.,24.0,1.,24.0,1.,24.0,0.,24.0
1979-07-14 13:12:10.570 ,5,1,20.,24.0,0.,24.0,10.,24.0,0.,24.0
1979-07-14 13:12:34.570 ,0,0,0.,24.0,0.,24.0,3.,24.0,0.,24.0
1979-07-14 13:12:58.570 ,0,0,1.,24.0,0.,24.0,7.,24.0,0.,24.0
1979-07-14 13:13:22.570 ,6,1,1.,24.0,0.,24.0,7.,24.0,0.,24.0
1979-07-14 13:13:46.570 ,5,1,17.,24.0,0.,24.0,4.,24.0,0.,24.0
1979-07-14 13:14:10.570 ,1,1,1.,24.0,0.,24.0,7.,24.0,0.,24.0
1979-07-14 13:14:34.570 ,2,1,1.,24.0,0.,24.0,3.,24.0,0.,24.0
1979-07-14 13:14:58.570 ,6,1,3.,24.0,0.,24.0,6.,24.0,0.,24.0
1979-07-14 13:15:22.570 ,5,1,19.,24.0,0.,24.0,10.,24.0,0.,24.0
1979-07-14 13:15:46.570 ,1,1,3.,24.0,0.,24.0,5.,24.0,0.,24.0
1979-07-14 13:16:10.570 ,2,1,4.,24.0,1.,24.0,8.,24.0,0.,24.0
1979-07-14 13:16:34.570 ,6,1,4.,24.0,0.,24.0,3.,24.0,0.,24.0
1979-07-14 13:16:58.570 ,5,1,13.,24.0,0.,24.0,4.,24.0,0.,24.0
1979-07-14 13:17:22.570 ,1,1,2.,24.0,1.,24.0,5.,24.0,0.,24.0
1979-07-14 13:17:46.570 ,0,0,1.,24.0,2.,24.0,10.,24.0,0.,24.0
1979-07-14 13:18:10.570 ,0,0,2.,24.0,1.,24.0,2.,24.0,0.,24.0
1979-07-14 13:18:34.570 ,5,1,9.,24.0,0.,24.0,12.,24.0,0.,24.0
1979-07-14 13:18:58.570 ,5,0,7.,24.0,0.,24.0,9.,24.0,0.,24.0
1979-07-14 13:19:22.570 ,4,1,4.,24.0,1.,24.0,5.,24.0,0.,24.0
1979-07-14 13:19:46.570 ,4,0,2.,24.0,1.,24.0,3.,24.0,0.,24.0
1979-07-14 13:20:10.570 ,3,1,3.,24.0,1.,24.0,4.,24.0,0.,24.0
1979-07-14 13:20:34.570 ,3,0,3.,24.0,1.,24.0,4.,24.0,0.,24.0
1979-07-14 13:20:58.570 ,2,1,0.,24.0,1.,24.0,6.,24.0,0.,24.0
1979-07-14 13:21:22.570 ,2,0,3.,24.0,0.,24.0,6.,24.0,0.,24.0
1979-07-14 13:21:46.570 ,1,1,1.,24.0,0.,24.0,5.,24.0,0.,24.0
1979-07-14 13:22:10.570 ,1,0,2.,24.0,1.,24.0,10.,24.0,0.,24.0
1979-07-14 13:22:34.570 ,0,1,5.,24.0,0.,24.0,7.,24.0,0.,24.0
1979-07-14 13:22:58.570 ,0,0,0.,24.0,0.,24.0,5.,24.0,0.,24.0
1979-07-14 13:23:22.570 ,0,1,1.,24.0,0.,24.0,4.,24.0,0.,24.0
1979-07-14 13:23:46.570 ,0,0,0.,24.0,3.,24.0,8.,24.0,0.,24.0
1979-07-14 13:24:10.570 ,1,1,0.,24.0,1.,24.0,3.,24.0,0.,24.0
1979-07-14 13:24:34.570 ,1,0,0.,24.0,2.,24.0,8.,24.0,0.,24.0
1979-07-14 13:24:58.570 ,2,1,1.,24.0,1.,24.0,8.,24.0,0.,24.0
1979-07-14 13:25:22.570 ,0,1,4.,24.0,0.,24.0,3.,24.0,0.,24.0
1979-07-14 13:25:46.570 ,3,1,2.,24.0,0.,24.0,2.,24.0,0.,24.0
1979-07-14 13:26:10.570 ,0,0,,0,,0,,0,,0
1979-07-14 13:26:34.570 ,4,1,1.,24.0,0.,24.0,7.,24.0,0.,24.0
1979-07-14 13:26:58.570 ,4,0,3.,24.0,0.,24.0,3.,24.0,0.,24.0
1979-07-14 13:27:22.570 ,5,1,5.,24.0,0.,24.0,11.,24.0,0.,24.0
1979-07-14 13:27:46.570 ,5,0,0.,24.0,1.,24.0,6.,24.0,0.,24.0
1979-07-14 13:28:10.570 ,6,1,5.,24.0,1.,24.0,9.,24.0,0.,24.0
1979-07-14 13:28:34.570 ,6,0,2.,24.0,0.,24.0,7.,24.0,0.,24.0
1979-07-14 13:28:58.570 ,7,1,9.,24.0,0.,24.0,8.,24.0,0.,24.0
1979-07-14 13:29:22.570 ,7,1,28.,24.0,0.,24.0,6.,24.0,0.,24.0
1979-07-14 13:29:46.570 ,0,0,41.,24.0,0.,24.0,4.,24.0,0.,24.0
1979-07-14 13:30:10.570 ,0,0,35.,24.0,0.,24.0,5.,24.0,0.,24.0
1979-07-14 13:30:34.570 ,0,0,17.,24.0,1.,24.0,5.,24.0,0.,24.0
1979-07-14 13:30:58.570 ,0,0,2.,24.0,1.,24.0,7.,24.0,0.,24.0
1979-07-14 13:31:22.570 ,5,1,1.,24.0,2.,24.0,4.,24.0,0.,24.0
1979-07-14 13:31:46.570 ,5,0,3.,24.0,3.,24.0,3.,24.0,0.,24.0
1979-07-14 13:32:10.570 ,4,1,2.,24.0,3.,24.0,2.,24.0,0.,24.0
1979-07-14 13:32:34.570 ,4,0,4.,24.0,2.,24.0,5.,24.0,0.,24.0
1979-07-14 13:32:58.570 ,3,1,6.,24.0,1.,24.0,7.,24.0,0.,24.0
1979-07-14 13:33:22.570 ,3,0,2.,24.0,1.,24.0,3.,24.0,0.,24.0
1979-07-14 13:33:46.570 ,2,1,2.,24.0,1.,24.0,1.,24.0,0.,24.0
1979-07-14 13:34:10.570 ,2,0,2.,24.0,0.,24.0,9.,24.0,0.,24.0
1979-07-14 13:34:34.570 ,1,1,5.,24.0,0.,24.0,6.,24.0,0.,24.0
1979-07-14 13:34:58.570 ,1,0,2.,24.0,0.,24.0,5.,24.0,0.,24.0
1979-07-14 13:35:22.570 ,0,1,1.,24.0,0.,24.0,6.,24.0,0.,24.0
1979-07-14 13:35:46.570 ,0,0,0.,24.0,0.,24.0,8.,24.0,0.,24.0
1979-07-14 13:36:10.570 ,0,1,2.,24.0,0.,24.0,4.,24.0,0.,24.0
1979-07-14 13:36:34.570 ,0,0,1.,24.0,0.,24.0,7.,24.0,0.,24.0
1979-07-14 13:36:58.570 ,1,1,2.,24.0,0.,24.0,8.,24.0,0.,24.0
1979-07-14 13:37:22.570 ,1,0,1.,24.0,0.,24.0,7.,24.0,0.,24.0
1979-07-14 13:37:46.570 ,2,1,4.,24.0,1.,24.0,6.,24.0,0.,24.0
1979-07-14 13:38:10.570 ,2,0,1.,24.0,1.,24.0,9.,24.0,0.,24.0
1979-07-14 13:38:34.570 ,3,1,5.,24.0,0.,24.0,10.,24.0,0.,24.0
1979-07-14 13:38:58.570 ,3,0,2.,24.0,0.,24.0,3.,24.0,0.,24.0
1979-07-14 13:39:22.570 ,4,1,2.,24.0,1.,24.0,4.,24.0,0.,24.0
1979-07-14 13:39:46.570 ,4,0,6.,24.0,0.,24.0,10.,24.0,0.,24.0
1979-07-14 13:40:10.570 ,5,1,3.,24.0,0.,24.0,4.,24.0,0.,24.0
1979-07-14 13:40:34.570 ,5,0,5.,24.0,4.,24.0,6.,24.0,0.,24.0
1979-07-14 13:40:58.570 ,6,1,4.,24.0,1.,24.0,5.,24.0,0.,24.0
1979-07-14 13:41:22.570 ,6,0,7.,24.0,0.,24.0,7.,24.0,0.,24.0
1979-07-14 13:41:46.570 ,7,1,8.,24.0,2.,24.0,6.,24.0,0.,24.0
1979-07-14 13:42:10.570 ,7,0,36.,24.0,0.,24.0,4.,24.0,0.,24.0
1979-07-14 13:42:34.570 ,7,1,32.,24.0,0.,24.0,7.,24.0,0.,24.0
1979-07-14 13:42:58.570 ,7,0,27.,24.0,0.,24.0,6.,24.0,0.,24.0
1979-07-14 13:43:22.570 ,6,1,21.,24.0,0.,24.0,6.,24.0,0.,24.0
1979-07-14 13:43:46.570 ,6,0,2.,24.0,0.,24.0,7.,24.0,0.,24.0
1979-07-14 13:44:10.570 ,5,1,2.,24.0,2.,24.0,7.,24.0,0.,24.0
1979-07-14 13:44:34.570 ,5,0,3.,24.0,0.,24.0,11.,24.0,0.,24.0
1979-07-14 13:44:58.570 ,4,1,3.,24.0,1.,24.0,5.,24.0,0.,24.0
1979-07-14 13:45:22.570 ,4,0,7.,24.0,1.,24.0,4.,24.0,0.,24.0
1979-07-14 13:45:46.570 ,3,1,5.,24.0,0.,24.0,3.,24.0,0.,24.0
1979-07-14 13:46:10.570 ,3,0,2.,24.0,0.,24.0,7.,24.0,0.,24.0
1979-07-14 13:46:34.570 ,2,1,1.,24.0,0.,24.0,7.,24.0,0.,24.0
1979-07-14 13:46:58.570 ,2,0,2.,24.0,0.,24.0,5.,24.0,0.,24.0
1979-07-14 13:47:22.570 ,1,1,0.,24.0,1.,24.0,2.,24.0,0.,24.0
1979-07-14 13:47:46.570 ,1,0,0.,24.0,2.,24.0,4.,24.0,0.,24.0
1979-07-14 13:48:10.570 ,0,1,1.,24.0,1.,24.0,10.,24.0,0.,24.0
1979-07-14 13:48:34.570 ,0,0,1.,24.0,1.,24.0,5.,24.0,0.,24.0
1979-07-14 13:48:58.570 ,0,1,0.,24.0,0.,24.0,7.,24.0,0.,24.0
1979-07-14 13:49:22.570 ,0,0,1.,24.0,1.,24.0,9.,24.0,0.,24.0
1979-07-14 13:49:46.570 ,1,1,0.,24.0,0.,24.0,8.,24.0,0.,24.0
1979-07-14 13:50:10.570 ,1,0,3.,24.0,0.,24.0,3.,24.0,0.,24.0
1979-07-14 13:50:34.570 ,2,1,0.,24.0,1.,24.0,9.,24.0,0.,24.0
1979-07-14 13:50:58.570 ,2,0,2.,24.0,0.,24.0,4.,24.0,0.,24.0
1979-07-14 13:51:22.570 ,3,1,3.,24.0,0.,24.0,3.,24.0,0.,24.0
1979-07-14 13:51:46.570 ,3,0,3.,24.0,1.,24.0,2.,24.0,0.,24.0
1979-07-14 13:52:10.570 ,4,1,1.,24.0,0.,24.0,5.,24.0,0.,24.0
1979-07-14 13:52:34.570 ,4,0,3.,24.0,1.,24.0,2.,24.0,0.,24.0
1979-07-14 13:52:58.570 ,5,1,7.,24.0,0.,24.0,8.,24.0,0.,24.0
1979-07-14 13:53:22.570 ,5,0,2.,24.0,1.,24.0,7.,24.0,0.,24.0
1979-07-14 13:53:46.570 ,6,1,3.,24.0,1.,24.0,5.,24.0,0.,24.0
1979-07-14 13:54:10.570 ,6,0,1.,24.0,0.,24.0,13.,24.0,0.,24.0
1979-07-14 13:54:34.570 ,7,0,13.,24.0,0.,24.0,6.,24.0,0.,24.0
1979-07-14 13:54:58.570 ,7,0,32.,24.0,0.,24.0,4.,24.0,0.,24.0
1979-07-14 13:55:22.570 ,5,1,17.,24.0,0.,24.0,10.,24.0,0.,24.0
1979-07-14 13:55:46.570 ,1,1,0.,24.0,1.,24.0,8.,24.0,0.,24.0
1979-07-14 13:56:10.570 ,2,1,0.,24.0,1.,24.0,8.,24.0,0.,24.0
1979-07-14 13:56:34.570 ,6,1,0.,24.0,1.,24.0,8.,24.0,0.,24.0
1979-07-14 13:56:58.570 ,5,1,13.,24.0,0.,24.0,9.,24.0,0.,24.0
1979-07-14 13:57:22.570 ,1,1,2.,24.0,0.,24.0,6.,24.0,0.,24.0
1979-07-14 13:57:46.570 ,2,1,0.,24.0,0.,24.0,12.,24.0,0.,24.0
1979-07-14 13:58:10.570 ,6,1,2.,24.0,1.,24.0,12.,24.0,0.,24.0
1979-07-14 13:58:34.570 ,5,1,16.,24.0,0.,24.0,5.,24.0,0.,24.0
1979-07-14 13:58:58.570 ,1,1,4.,24.0,0.,24.0,3.,24.0,0.,24.0
1979-07-14 13:59:22.570 ,2,1,0.,24.0,1.,24.0,2.,24.0,0.,24.0
1979-07-14 13:59:46.570 ,6,1,0.,24.0,1.,24.0,2.,24.0,0.,24.0
1979-07-14 14:00:10.570 ,5,1,13.,24.0,3.,24.0,8.,24.0,0.,24.0
1979-07-14 14:00:34.570 ,1,1,0.,24.0,0.,24.0,8.,24.0,0.,24.0
1979-07-14 14:00:58.570 ,2,1,0.,24.0,0.,24.0,6.,24.0,0.,24.0
1979-07-14 14:01:22.570 ,6,1,1.,24.0,0.,24.0,8.,24.0,0.,24.0
1979-07-14 14:01:46.570 ,5,1,18.,24.0,0.,24.0,10.,24.0,0.,24.0
1979-07-14 14:02:10.570 ,1,1,0.,24.0,1.,24.0,3.,24.0,0.,24.0
1979-07-14 14:02:34.570 ,2,1,0.,24.0,2.,24.0,3.,24.0,0.,24.0
1979-07-14 14:02:58.570 ,6,1,0.,24.0,0.,24.0,4.,24.0,0.,24.0
1979-07-14 14:03:22.570 ,5,1,19.,24.0,1.,24.0,11.,24.0,0.,24.0
1979-07-14 14:03:46.570 ,1,1,0.,24.0,1.,24.0,10.,24.0,0.,24.0
1979-07-14 14:04:10.570 ,2,1,1.,24.0,0.,24.0,6.,24.0,0.,24.0
1979-07-14 14:04:34.570 ,6,1,0.,24.0,0.,24.0,8.,24.0,0.,24.0
1979-07-14 14:04:58.570 ,5,1,16.,24.0,0.,24.0,5.,24.0,0.,24.0
1979-07-14 14:05:22.570 ,1,1,1.,24.0,0.,24.0,6.,24.0,0.,24.0
1979-07-14 14:05:46.570 ,0,0,2.,24.0,0.,24.0,6.,24.0,0.,24.0
1979-07-14 14:06:10.570 ,0,0,3.,24.0,0.,24.0,2.,24.0,0.,24.0
1979-07-14 14:06:34.570 ,5,1,23.,24.0,0.,24.0,3.,24.0,0.,24.0
1979-07-14 14:06:58.570 ,5,0,1.,24.0,0.,24.0,5.,24.0,0.,24.0
1979-07-14 14:07:22.570 ,4,1,2.,24.0,0.,24.0,1.,24.0,0.,24.0
1979-07-14 14:07:46.570 ,4,0,0.,24.0,1.,24.0,4.,24.0,0.,24.0
1979-07-14 14:08:10.570 ,3,1,1.,24.0,0.,24.0,6.,24.0,0.,24.0
1979-07-14 14:08:34.570 ,3,0,0.,24.0,1.,24.0,7.,24.0,0.,24.0
1979-07-14 14:08:58.570 ,2,1,0.,24.0,0.,24.0,3.,24.0,0.,24.0
1979-07-14 14:09:22.570 ,2,0,1.,24.0,0.,24.0,6.,24.0,0.,24.0
1979-07-14 14:09:46.570 ,1,1,0.,24.0,0.,24.0,9.,24.0,0.,24.0
1979-07-14 14:10:10.570 ,1,0,0.,24.0,0.,24.0,3.,24.0,0.,24.0
1979-07-14 14:10:34.570 ,0,1,2.,24.0,2.,24.0,4.,24.0,0.,24.0
1979-07-14 14:10:58.570 ,0,0,0.,24.0,0.,24.0,3.,24.0,0.,24.0
1979-07-14 14:11:22.570 ,0,1,1.,24.0,0.,24.0,5.,24.0,0.,24.0
1979-07-14 14:11:46.570 ,0,0,0.,24.0,0.,24.0,4.,24.0,0.,24.0
1979-07-14 14:12:10.570 ,1,1,2.,24.0,0.,24.0,6.,24.0,0.,24.0
1979-07-14 14:12:34.570 ,1,0,4.,24.0,1.,24.0,6.,24.0,0.,24.0
1979-07-14 14:12:58.570 ,2,1,1.,24.0,1.,24.0,2.,24.0,0.,24.0
1979-07-14 14:13:22.570 ,2,0,0.,24.0,0.,24.0,2.,24.0,0.,24.0
1979-07-14 14:13:46.570 ,3,1,0.,24.0,0.,24.0,3.,24.0,0.,24.0
1979-07-14 14:14:10.570 ,3,0,3.,24.0,1.,24.0,4.,24.0,0.,24.0
1979-07-14 14:14:34.570 ,4,1,0.,24.0,1.,24.0,0.,24.0,0.,24.0
1979-07-14 14:14:58.570 ,4,0,3.,24.0,2.,24.0,4.,24.0,0.,24.0
1979-07-14 14:15:22.570 ,5,1,5.,24.0,0.,24.0,5.,24.0,0.,24.0
1979-07-14 14:15:46.570 ,5,0,3.,24.0,0.,24.0,5.,24.0,0.,24.0
1979-07-14 14:16:10.570 ,6,1,1.,24.0,0.,24.0,7.,24.0,0.,24.0
1979-07-14 14:16:34.570 ,6,0,4.,24.0,0.,24.0,3.,24.0,0.,24.0
1979-07-14 14:16:58.570 ,7,1,9.,24.0,0.,24.0,6.,24.0,0.,24.0
1979-07-14 14:17:22.570 ,7,0,34.,24.0,0.,24.0,5.,24.0,0.,24.0
1979-07-14 14:17:46.570 ,7,1,37.,24.0,0.,24.0,2.,24.0,0.,24.0
1979-07-14 14:18:10.570 ,7,0,29.,24.0,0.,24.0,3.,24.0,0.,24.0
1979-07-14 14:18:34.570 ,6,1,26.,24.0,1.,24.0,4.,24.0,0.,24.0
1979-07-14 14:18:58.570 ,6,0,0.,24.0,1.,24.0,6.,24.0,0.,24.0
1979-07-14 14:19:22.570 ,5,1,2.,24.0,0.,24.0,8.,24.0,0.,24.0
1979-07-14 14:19:46.570 ,5,0,0.,24.0,1.,24.0,9.,24.0,0.,24.0
1979-07-14 14:20:10.570 ,4,1,0.,24.0,0.,24.0,5.,24.0,0.,24.0
1979-07-14 14:20:34.570 ,4,0,3.,24.0,0.,24.0,7.,24.0,0.,24.0
1979-07-14 14:20:58.570 ,3,1,0.,24.0,1.,24.0,3.,24.0,0.,24.0
1979-07-14 14:21:22.570 ,3,0,0.,24.0,0.,24.0,3.,24.0,0.,24.0
1979-07-14 14:21:46.570 ,2,1,1.,24.0,0.,24.0,7.,24.0,0.,24.0
1979-07-14 14:22:10.570 ,2,0,1.,24.0,0.,24.0,4.,24.0,0.,24.0
1979-07-14 14:22:34.570 ,1,1,2.,24.0,0.,24.0,2.,24.0,0.,24.0
1979-07-14 14:22:58.570 ,1,0,0.,24.0,0.,24.0,0.,24.0,0.,24.0
1979-07-14 14:23:22.570 ,0,1,0.,24.0,0.,24.0,5.,24.0,0.,24.0
1979-07-14 14:23:46.570 ,0,0,0.,24.0,0.,24.0,3.,24.0,0.,24.0
1979-07-14 14:24:10.570 ,0,1,0.,24.0,0.,24.0,4.,24.0,0.,24.0
1979-07-14 14:24:34.570 ,0,0,0.,24.0,0.,24.0,4.,24.0,0.,24.0
1979-07-14 14:24:58.570 ,1,1,0.,24.0,0.,24.0,6.,24.0,0.,24.0
1979-07-14 14:25:22.570 ,1,0,0.,24.0,0.,24.0,5.,24.0,0.,24.0
1979-07-14 14:25:46.570 ,2,1,0.,24.0,0.,24.0,9.,24.0,0.,24.0
1979-07-14 14:26:10.570 ,2,0,1.,24.0,1.,24.0,3.,24.0,0.,24.0
1979-07-14 14:26:34.570 ,3,1,0.,24.0,1.,24.0,5.,24.0,0.,24.0
1979-07-14 14:26:58.570 ,3,0,1.,24.0,0.,24.0,4.,24.0,0.,24.0
1979-07-14 14:27:22.570 ,4,1,0.,24.0,1.,24.0,3.,24.0,0.,24.0
1979-07-14 14:27:46.570 ,4,0,2.,24.0,0.,24.0,3.,24.0,0.,24.0
1979-07-14 14:28:10.570 ,5,1,1.,24.0,0.,24.0,12.,24.0,0.,24.0
1979-07-14 14:28:34.570 ,5,0,2.,24.0,1.,24.0,7.,24.0,0.,24.0
1979-07-14 14:28:58.570 ,6,1,0.,24.0,0.,24.0,6.,24.0,0.,24.0
1979-07-14 14:29:22.570 ,6,0,0.,24.0,0.,24.0,4.,24.0,0.,24.0
1979-07-14 14:29:46.570 ,7,1,9.,24.0,0.,24.0,7.,24.0,0.,24.0
1979-07-14 14:30:10.570 ,7,0,26.,24.0,0.,24.0,5.,24.0,0.,24.0
1979-07-14 14:30:34.570 ,7,1,37.,24.0,0.,24.0,5.,24.0,0.,24.0
1979-07-14 14:30:58.570 ,7,0,45.,24.0,0.,24.0,5.,24.0,0.,24.0
1979-07-14 14:31:22.570 ,6,1,28.,24.0,0.,24.0,7.,24.0,0.,24.0
1979-07-14 14:31:46.570 ,6,0,1.,24.0,0.,24.0,9.,24.0,0.,24.0
1979-07-14 14:32:10.570 ,5,1,1.,24.0,0.,24.0,4.,24.0,0.,24.0
1979-07-14 14:32:34.570 ,5,0,0.,24.0,0.,24.0,7.,24.0,0.,24.0
1979-07-14 14:32:58.570 ,4,1,0.,24.0,0.,24.0,5.,24.0,0.,24.0
1979-07-14 14:33:22.570 ,4,0,2.,24.0,0.,24.0,7.,24.0,0.,24.0
1979-07-14 14:33:46.570 ,3,1,1.,24.0,0.,24.0,4.,24.0,0.,24.0
1979-07-14 14:34:10.570 ,3,0,1.,24.0,1.,24.0,1.,24.0,0.,24.0
1979-07-14 14:34:34.570 ,2,1,2.,24.0,0.,24.0,3.,24.0,0.,24.0
1979-07-14 14:34:58.570 ,2,0,0.,24.0,0.,24.0,4.,24.0,0.,24.0
1979-07-14 14:35:22.570 ,1,1,0.,24.0,0.,24.0,1.,24.0,0.,24.0
1979-07-14 14:35:46.570 ,1,0,0.,24.0,0.,24.0,2.,24.0,0.,24.0
1979-07-14 14:36:10.570 ,0,1,0.,24.0,0.,24.0,2.,24.0,0.,24.0